Regional Weather Roundup
Issued by NWS Wakefield, VA

Home | Current Version | Previous Version | Graphics & Text | Print | Product List | Glossary On
Versions: 1 2 3 4 5 6 7 8 9 10 11 12 13 14 15 16 17 18 19 20 21 22 23 24 25 26 27 28 29 30 31 32 33 34 35 36 37 38 39 40 41 42 43 44 45 46 47 48 49
000
ASUS41 KAKQ 090315
RWRAKQ

REGIONAL WEATHER ROUNDUP
NATIONAL WEATHER SERVICE WAKEFIELD VA
1000 PM EST MON FEB 08 2016

Note: "fair" indicates few or no clouds below 12,000 feet with no
significant weather and/or obstructions to visibility. * = Denotes
station may not report precipitation (e.g., rain,snow,etc.),
thunder or fog.

VAZ042-051-052>054-056-090400-
NORTHERN VIRGINIA

CITY           SKY/WX    TMP DP  RH WIND       PRES   REMARKS
WASH NATIONAL  LGT RAIN  39  34  82 SE6       29.70F
DULLES         DRIZZLE   39  31  72 SE8       29.67F
FORT BELVOIR   FAIR      39  33  80 SE6       29.69F
QUANTICO       LGT RAIN  40  34  79 S13       29.71S
FREDERICKSBRG* LGT RAIN  38  35  89 SE6       29.68F
STAFFORD*      CLOUDY    38  33  83 SE6       29.72F
WARRENTON      CLOUDY    40  35  81 SE7       29.66F
CULPEPER*      DRIZZLE   40  32  72 CALM      29.67S
MANASSAS*      CLOUDY    39  34  81 SE7       29.68S
LEESBURG*      CLOUDY    41  36  81 SE7       29.68S
WINCHESTER     LGT RAIN  39  32  75 S5        29.63F
FRONT ROYAL*   CLOUDY    37  32  81 SW5       29.63S
LURAY*         DRIZZLE   36  34  93 CALM      29.62F
$$

VAZ048-049-060>072-079>083-090400-
CENTRAL AND SOUTH CENTRAL VIRGINIA

CITY           SKY/WX    TMP DP  RH WIND       PRES   REMARKS
RICHMOND       CLOUDY    38  34  85 SE7       29.68F
CHESTERFIELD*  CLOUDY   N/A N/A N/A E6        29.68F
PETERSBURG*    LGT RAIN  40  38  92 E3        29.67F
HANOVER        CLOUDY    39  33  79 E3        29.69F
TAPPAHANNOCK*  CLOUDY    39  35  83 E6        29.69F
QUINTON*       CLOUDY    39  35  84 MISG      29.68F
CHARLOTTSVILLE LGT RAIN  38  34  85 NE5       29.64F
GORDONSVILLE*  CLOUDY    38  38  99 CALM      29.65S FOG
ORANGE*        DRIZZLE   39  37  93 CALM      29.67F
LOUISA*        CLOUDY    39  37  93 SE6       29.64F
BUMPASS*       CLOUDY    37  35  93 SE6       29.67F
FARMVILLE*     CLOUDY    37  37 100 CALM      29.64S FOG
CREWE*         CLOUDY    36  36 100 CALM      29.65F
FORT PICKETT*  CLOUDY    40  39  99 CALM      29.64F
CHASE CITY*    CLOUDY    36  35  94 CALM      29.66S
CLARKSVILLE*   CLOUDY    37  34  87 CALM      29.66R
SOUTH HILL*    FAIR      37  37  99 CALM      29.71S
LAWRENCEVILLE* MOCLDY    40  39  96 S3        29.65F
EMPORIA*       LGT SNOW  41  39  93 CALM      29.68F
$$

VAZ088>098-090400-
SOUTHEAST VIRGINIA

CITY           SKY/WX    TMP DP  RH WIND       PRES   REMARKS
NORFOLK        CLOUDY    43  36  76 SE6       29.68F
VIRGINIA BEACH MOCLDY    45  37  73 E9        29.68F
NORFOLK NAVAL  CLOUDY    43  36  76 E8        29.69F
WEST POINT*    CLOUDY    39  35  86 E3        29.70F
SALUDA*        CLOUDY    39  37  93 SE3       29.69F
NEWPORT NEWS   MOCLDY    41  37  86 VRB5      29.69F
LANGLEY AFB    CLOUDY    42  38  84 SE7       29.67F
FORT EUSTIS    CLOUDY    41  36  83 SE5       29.67F
WILLIAMSBURG*  FAIR      43  39  87 SE5       29.69F
HR EXEC AP*    CLOUDY    43  36  75 E8        29.68F
FRANKLIN*      MOCLDY    40  34  81 CALM      29.68F
US460-WAKEFLD  MOCLDY    40  34  79 CALM      29.68F
$$

VAZ020-022-025-037-045-090400-
WEST CENTRAL AND SOUTHWEST VIRGINIA

CITY           SKY/WX    TMP DP  RH WIND       PRES   REMARKS
STAUNTON*      CLOUDY    38  35  90 CALM      29.63F
WAYNESBORO*    CLOUDY    34  32  92 CALM      29.61S
HOT SPRINGS VA SNOW     N/A N/A N/A W13       29.51S VSB<1/4
LYNCHBURG      FOG       30  30 100 S3        29.64F VSB 1/4
DANVILLE       FAIR      31  29  92 SW3       29.68S FOG
SOUTH BOSTON*  FAIR      33  32  97 CALM      29.67S
MARTINSVILLE   FAIR      25  25  99 CALM      29.69S FOG
ROANOKE        FAIR      32  29  88 W6        29.65F
BLACKSBURG     FAIR      31  28  87 W5        29.65F
DUBLIN*        FAIR      30  26  84 W6        29.64F
MARION*        FLURRIES  32  29  89 W9        29.65F
HILLSVILLE*    FAIR      29  26  86 NW10      29.59F WCI  20
RICHLANDS*     LGT SNOW  29  27  90 NW6       29.63S VSB 1
WISE*          LGT SNOW  30  28  93 W7        29.65F
ABINGDON*      LGT SNOW  33  31  92 W5        29.66F
$$

MDZ021>025-VAZ099-100-090400-
SOUTHERN MARYLAND AND THE DELMARVA PENINSULA

CITY           SKY/WX    TMP DP  RH WIND       PRES   REMARKS
PATUXENT RIVER CLOUDY    39  33  79 SE14      29.70F
BAY BRIDGE APT LGT RAIN  37  34  87 SE9       29.72S
LEONARDTOWN    CLOUDY    36  34  93 SE7       29.71F
DOVER          FLURRIES  34  34 100 E10       29.72F
GEORGETOWN     MIX PCPN  35  34  96 E6        29.74F
EASTON         DRIZZLE   37  37 100 SE6       29.76F
CAMBRIDGE      CLOUDY    36  32  87 E8        29.71F
SALISBURY      CLOUDY    35  34  96 E7        29.72F
OCEAN CITY     CLOUDY    39  34  82 SE9       29.74F
WALLOPS ISLAND MOCLDY    39  34  82 E8        29.72F
ACCOMACK*      FAIR      37  34  87 E6        29.70F
$$

NCZ012>017-030>032-090400-
NORTH CENTRAL AND EASTERN NORTH CAROLINA

CITY           SKY/WX    TMP DP  RH WIND       PRES   REMARKS
ROANOKE RAPIDS LGT RAIN  41  41 100 NE3       29.65F
RALEIGH        CLOUDY    38  37  97 CALM      29.67F
ELIZABETH CITY CLOUDY    42  37  82 E7        29.66F
AHOSKIE*       LGT RAIN  40  38  93 CALM      29.67F
EDENTON*       CLOUDY    44  39  82 CALM      29.67F
CURRITUCK*     CLOUDY    44  38  82 E6        29.68F
KILL DEVIL HLS CLOUDY    42  37  80 E6        29.66F HAZE
MANTEO         CLOUDY    42  38  86 E8        29.68F
CAPE HATTERAS  CLEAR     39  34  82 CALM      29.66F
TARBORO*       CLOUDY    42  41  95 CALM      29.69R
GOLDSBORO      CLOUDY    41  41 100 S2        29.66F
WASHINGTON     LGT RAIN  43  38  82 CALM      29.69S
GREENVILLE     DRIZZLE   43  41  93 CALM      29.71F
NEW BERN       CLOUDY    45  36  70 W12G18    29.73R
WILMINGTON     CLOUDY    46  41  82 W5        29.68F
$$

VAZ048-090400-
ELSEWHERE

CITY           SKY/WX    TMP DP  RH WIND       PRES   REMARKS
HARRISBURG PA  LGT SNOW  34  31  88 E7        29.69S
BALTIMORE      CLOUDY    38  34  85 S6        29.70S
ANNAPOLIS      LGT RAIN  38  35  89 S13       29.71S
ANDREWS AFB    LGT RAIN  38  34  87 SE8       29.68F
PHILADELPHIA   LGT SNOW  33  27  78 SE9       29.76F
HENDERSON NC   CLOUDY    37  33  85 SW5       29.66S
GREENSBORO     MOCLDY    35  32  88 CALM      29.65F
ROCKY MOUNT    CLOUDY    42  41  96 CALM      29.68S
$$

VAZ100-090400-
MARINE

STATION/POSITION TIME  TEMP    WIND        PRES    WAVE   SWELL
                       AIR SEA DIR/SP/G            HT/PER HT/PER
                 (UTC) (F)     (DEG/KT/KT) (MB)    (FT/S) (FT/S)
BRANDYWINE LGT   0200   34     110/ 14/ 15 1007.5F
CAPE MAY NJ      0200   36 43   90/  6/ 12 1007.4F
LEWES DE         0200   36 41  130/  6/  9 1007.6F
15NM E FENWICK I 0250   38 44              1006.9F  13/15
OCEAN-CITY-INLET 0200   39 42  130/  5/  8 1006.7F
WACHAPREAGUE VA  0200   41 43  100/ 11/ 13 1006.8F
GOOSES REEF MD   0300   38 40  130/ 12/ 14 1006.8F   1/ 3
COVE POINT MD    0200   38     170/ 14/ 16 1007.0F
SOLOMONS ISLAND  0200   39 41  130/ 10/ 11   N/A
BISHOPS HEAD MD  0200   39 41  110/ 12/ 14 1005.5F
PINEY POINT MD   0200          150/ 14/ 15   N/A
POTOMAC MD       0300   40 41  130/ 14/ 17 1004.6F   2/ 3
CAMBRIDGE MD     0200   38 40  120/  5/  9 1005.9F
LEWISETTA VA     0200   40 41  150/  6/  7 1006.0F
RAPPAHANNOCK LGT 0200          100/ 14/ 15 1006.1F
STINGRAY PT      0300   41 41  120/ 12/ 14 1005.1F   2/ 3
YORK RVR RNG VA  0200   42     120/ 17/ 19 1004.8F
YORKTOWN VA      0200   42 43  110/ 12/ 15 1005.3F
JAMESTOWN VA     0300   41 44  120/ 10/ 12   N/A
DOMINION TERM VA 0200   42      90/  7/ 10 1005.5F
KIPTOPEKE VA     0200      43  110/  9/ 11   N/A
CHES BAY BRIDGE  0200   43 44   90/ 10/ 14 1005.4F
CAPE HENRY VA    0200   43     110/ 12/ 14   N/A
CHESAPEAKE LGHT  0200   43     100/ 14/ 16 1006.6F
WILLOUBY STN VA  0200   42     120/ 10/ 11   N/A
CAPE HENRY BUOY  0228      45                N/A     8/14   5/14
1ST LANDING BUOY 0300      44                N/A     5/ 8
CAPE CHARLES BUO 0226      45                N/A     8/15   8/15
OFFSHORE WE BUOY 0221      47                N/A     9/13  10/13
64NM E OF VA BCH 0250   47 52  110/  6/ 12 1005.6F  13/14  13/14
DUCK PIER NC     0200   44     120/ 14/ 15 1004.9F
44100 DUCK FRF   0224      47                N/A    14/15  11/15
44056 DUCK FRF   0211      44                N/A    11/15  10/15
OREGON INLET NC  0200   44 45   70/  8/ 10 1005.5F
HATTERAS NC      0200   44 52   70/  5/  5 1004.9F
DIAMOND SHLS NC  0250   54 74  330/ 10/ 14 1004.3F  10/16  10/16
$$



USA.gov is the U.S. government's official web portal to all federal, state and local government web resources and services.